GW5315 Weather Reports


time (UTC)temp
C
wind
direction
speed
KPH
gust
KPH
rain 1hr
cm
rain 24hr
cm
rain mn
cm
humidity
%
barometer
mb
20260906072014 21 161 0.0 0.0 0.00 0.00 0.00 99 1012.6
20260906071509 21 161 0.0 0.0 0.00 0.00 0.00 99 1012.6
20260906071004 21 162 0.0 0.0 0.00 0.00 0.00 99 1012.5
20260906070500 21 162 0.0 0.0 0.00 0.00 0.00 99 1012.7
20260906065955 21 162 0.0 0.0 0.00 0.00 0.00 99 1012.8
20260906065450 21 161 0.0 0.0 0.00 0.00 0.00 99 1012.8
20260906064945 21 172 0.0 0.0 0.00 0.00 0.00 99 1012.9
20260906064441 21 174 0.0 0.0 0.00 0.00 0.00 99 1012.8
20260906063936 21 175 0.0 0.0 0.00 0.00 0.00 99 1013.1
20260906063432 21 175 0.0 0.0 0.00 0.00 0.00 99 1013.0
20260906062926 21 174 0.0 0.0 0.00 0.00 0.00 99 1013.2
20260906062421 21 174 0.0 0.0 0.00 0.00 0.00 99 1013.4
20260906061915 21 194 0.0 0.0 0.00 0.00 0.00 99 1013.2
20260906061411 21 194 0.0 0.0 0.00 0.00 0.00 99 1013.3
20260906060906 21 195 0.0 1.6 0.00 0.00 0.00 99 1013.5
20260906060403 21 183 0.0 0.0 0.00 0.00 0.00 99 1013.4
20260906055859 21 186 0.0 0.0 0.00 0.00 0.00 99 1013.5
20260906055355 21 186 0.0 0.0 0.00 0.00 0.00 99 1013.7
20260906054849 21 186 0.0 0.0 0.00 0.00 0.00 99 1013.5
20260906054344 21 169 0.0 0.0 0.00 0.00 0.00 99 1013.6
20260906053841 21 149 0.0 0.0 0.00 0.00 0.00 99 1013.7
20260906053337 21 126 1.6 1.6 0.00 0.00 0.00 99 1013.6
20260906052832 21 135 0.0 0.0 0.00 0.00 0.00 99 1013.7
20260906052328 21 197 0.0 0.0 0.00 0.00 0.00 99 1013.9
20260906051825 21 197 0.0 0.0 0.00 0.00 0.00 99 1013.9
20260906051324 21 197 0.0 0.0 0.00 0.00 0.00 99 1014.0
20260906050820 21 196 1.6 1.6 0.00 0.00 0.00 99 1013.9
20260906050315 21 192 0.0 0.0 0.00 0.00 0.00 99 1014.0
20260906045814 21 192 0.0 0.0 0.00 0.00 0.00 99 1014.3
20260906045308 21 191 0.0 0.0 0.00 0.00 0.00 99 1014.1
20260906044805 21 192 0.0 0.0 0.00 0.00 0.00 99 1014.0
20260906044300 21 191 0.0 0.0 0.00 0.00 0.00 99 1014.2
20260906043756 21 190 0.0 0.0 0.00 0.00 0.00 99 1014.0
20260906043251 21 190 0.0 0.0 0.00 0.00 0.00 99 1014.1
20260906042751 21 190 0.0 0.0 0.00 0.00 0.00 99 1014.0
20260906042250 21 190 0.0 0.0 0.00 0.00 0.00 99 1013.9
20260906041746 21 190 0.0 0.0 0.00 0.00 0.00 99 1014.3
20260906041240 21 190 0.0 0.0 0.00 0.00 0.00 99 1014.5
20260906040736 21 190 0.0 0.0 0.00 0.00 0.00 99 1014.0
20260906040231 21 190 0.0 0.0 0.00 0.00 0.00 99 1014.1
20260906035721 21 190 0.0 0.0 0.00 0.00 0.00 99 1014.2
20260906035216 22 190 0.0 0.0 0.00 0.00 0.00 99 1014.4
20260906034716 22 190 0.0 0.0 0.00 0.00 0.00 99 1014.4
20260906034211 22 190 0.0 0.0 0.00 0.00 0.00 98 1014.6
20260906033707 22 190 0.0 0.0 0.00 0.00 0.00 98 1014.4
20260906033206 22 190 0.0 1.6 0.00 0.00 0.00 98 1014.4
20260906032703 22 166 0.0 0.0 0.00 0.00 0.00 98 1014.4
20260906032158 22 165 0.0 0.0 0.00 0.00 0.00 98 1014.5
20260906031654 22 165 0.0 0.0 0.00 0.00 0.00 98 1014.5
20260906031149 22 166 0.0 0.0 0.00 0.00 0.00 97 1014.5
20260906030648 22 166 0.0 0.0 0.00 0.00 0.00 97 1014.6
20260906030144 22 166 0.0 0.0 0.00 0.00 0.00 97 1014.5
20260906025642 22 165 0.0 0.0 0.00 0.00 0.00 97 1014.3
20260906025142 22 153 0.0 0.0 0.00 0.00 0.00 97 1014.3
20260906024636 22 142 0.0 1.6 0.00 0.00 0.00 97 1014.3
20260906024130 22 142 0.0 1.6 0.00 0.00 0.00 97 1014.4
20260906023627 22 129 0.0 0.0 0.00 0.00 0.00 97 1014.2
20260906023126 22 192 0.0 0.0 0.00 0.00 0.00 97 1014.1
20260906022621 22 190 0.0 1.6 0.00 0.00 0.00 97 1014.1
20260906022117 22 185 0.0 0.0 0.00 0.00 0.00 96 1014.0
20260906021613 22 185 0.0 0.0 0.00 0.00 0.00 96 1014.0
20260906021111 22 184 1.6 1.6 0.00 0.00 0.00 96 1013.8
20260906020611 22 185 0.0 0.0 0.00 0.00 0.00 95 1014.0
20260906020106 22 185 0.0 0.0 0.00 0.00 0.00 95 1013.8
20260906015559 22 150 0.0 0.0 0.00 0.00 0.00 95 1013.8
20260906015059 22 149 0.0 0.0 0.00 0.00 0.00 95 1013.8
20260906014554 22 138 1.6 1.6 0.00 0.00 0.00 95 1013.9
20260906014050 22 186 0.0 0.0 0.00 0.00 0.00 95 1013.8
20260906013544 22 186 0.0 0.0 0.00 0.00 0.00 95 1013.8
20260906013040 22 186 0.0 0.0 0.00 0.00 0.00 95 1013.9
20260906012535 22 186 1.6 1.6 0.00 0.00 0.00 95 1014.0
20260906012034 23 201 1.6 1.6 0.00 0.00 0.00 95 1013.8
20260906011531 23 196 0.0 1.6 0.00 0.00 0.00 94 1013.5
20260906011030 23 191 0.0 1.6 0.00 0.00 0.00 93 1013.4
20260906010526 23 191 1.6 1.6 0.00 0.00 0.00 93 1013.2
20260906010022 23 190 1.6 1.6 0.00 0.00 0.00 92 1013.3
20260906005521 23 194 1.6 1.6 0.00 0.00 0.00 92 1013.4
20260906005020 23 193 1.6 1.6 0.00 0.00 0.00 92 1013.3
20260906004515 23 193 0.0 0.0 0.00 0.00 0.00 92 1013.7
20260906004009 23 182 1.6 1.6 0.00 0.00 0.00 91 1013.6
20260906003504 23 186 1.6 1.6 0.00 0.00 0.00 90 1013.4
20260906003000 24 178 0.0 0.0 0.00 0.00 0.00 90 1013.4
20260906002454 24 178 1.6 1.6 0.00 0.00 0.00 89 1013.2
20260906001949 24 178 0.0 0.0 0.00 0.00 0.00 89 1013.4
20260906001445 24 182 0.0 1.6 0.00 0.00 0.00 88 1013.4
20260906000939 24 183 1.6 1.6 0.00 0.00 0.00 88 1013.2
20260906000436 25 201 0.0 1.6 0.00 0.00 0.00 86 1013.4
20260905235925 25 173 0.0 1.6 0.00 0.00 0.00 85 1013.2
20260905235424 25 145 0.0 0.0 0.00 0.00 0.00 84 1013.1
20260905234919 25 144 0.0 0.0 0.00 0.00 0.00 83 1012.8
20260905234414 25 144 0.0 0.0 0.00 0.00 0.00 82 1012.6
20260905233909 26 142 0.0 1.6 0.00 0.00 0.00 80 1012.9
20260905233404 26 164 0.0 0.0 0.00 0.00 0.00 79 1012.5
20260905232903 26 184 0.0 1.6 0.00 0.00 0.00 78 1012.5
20260905232400 27 152 0.0 0.0 0.00 0.00 0.00 76 1012.4
20260905231855 27 219 0.0 0.0 0.00 0.00 0.00 73 1012.5
20260905231350 27 210 0.0 0.0 0.00 0.00 0.00 72 1012.5
20260905230847 27 206 0.0 0.0 0.00 0.00 0.00 72 1012.5
20260905230344 27 21 1.6 3.2 0.00 0.00 0.00 72 1012.5
20260905225844 27 312 3.2 3.2 0.00 0.00 0.00 71 1012.5
20260905225338 28 357 4.8 4.8 0.00 0.00 0.00 69 1012.9
20260905224833 28 281 1.6 1.6 0.00 0.00 0.00 69 1012.7
20260905224329 28 278 1.6 1.6 0.00 0.00 0.00 68 1012.7
20260905223824 28 321 3.2 3.2 0.00 0.00 0.00 68 1012.8
20260905223321 29 199 0.0 1.6 0.00 0.00 0.00 66 1012.7
20260905222816 29 154 1.6 1.6 0.00 0.00 0.00 67 1012.4
20260905222315 29 279 3.2 3.2 0.00 0.00 0.00 67 1012.4
20260905221811 28 258 1.6 1.6 0.00 0.00 0.00 67 1012.5
20260905221308 28 358 1.6 3.2 0.00 0.00 0.00 68 1012.5
20260905220803 27 327 3.2 3.2 0.00 0.00 0.00 70 1012.6
20260905220259 27 206 0.0 1.6 0.00 0.00 0.00 71 1012.6
20260905215758 27 350 1.6 1.6 0.00 0.00 0.00 72 1012.9
20260905215254 27 287 3.2 3.2 0.00 0.00 0.00 71 1013.0
20260905214750 27 348 3.2 3.2 0.00 0.00 0.00 72 1012.9
20260905214246 27 254 4.8 4.8 0.00 0.00 0.00 73 1012.8
20260905213741 27 8 1.6 1.6 0.00 0.00 0.00 73 1013.2
20260905213237 27 214 0.0 0.0 0.00 0.00 0.00 73 1013.3
20260905212732 27 74 3.2 3.2 0.00 0.00 0.00 73 1013.3
20260905212231 27 211 1.6 1.6 0.00 0.00 0.00 73 1013.3
20260905211730 27 251 1.6 1.6 0.00 0.00 0.00 74 1013.4
20260905211226 27 111 0.0 1.6 0.00 0.00 0.00 74 1013.4
20260905210723 27 155 0.0 0.0 0.00 0.00 0.00 74 1013.6
20260905210222 26 206 0.0 0.0 0.00 0.00 0.00 75 1013.5
20260905205721 26 169 0.0 1.6 0.00 0.00 0.00 76 1013.6
20260905205216 26 223 3.2 3.2 0.00 0.00 0.00 77 1013.4
20260905204716 26 317 6.4 8.0 0.00 0.00 0.00 77 1013.6
20260905204212 26 303 1.6 3.2 0.00 0.00 0.00 77 1013.3
20260905203706 26 69 1.6 1.6 0.00 0.00 0.00 77 1013.2
20260905203202 26 193 0.0 0.0 0.00 0.00 0.00 76 1013.4
20260905202657 26 244 1.6 3.2 0.00 0.00 0.00 76 1013.2
20260905202152 26 82 1.6 1.6 0.00 0.00 0.00 76 1013.2
20260905201648 26 13 3.2 4.8 0.00 0.00 0.00 74 1013.2
20260905201147 26 311 3.2 3.2 0.00 0.00 0.00 74 1013.4
20260905200643 26 5 1.6 3.2 0.00 0.00 0.00 74 1013.4
20260905200138 26 251 1.6 1.6 0.00 0.00 0.00 75 1013.8
20260905195636 26 315 4.8 4.8 0.00 0.00 0.00 75 1013.8
20260905195131 26 290 3.2 3.2 0.00 0.00 0.00 74 1013.7
20260905194627 27 300 3.2 3.2 0.00 0.00 0.00 73 1013.7
20260905194126 26 296 3.2 3.2 0.00 0.00 0.00 72 1013.4
20260905193621 27 46 1.6 3.2 0.00 0.00 0.00 72 1013.2
20260905193121 27 132 0.0 0.0 0.00 0.00 0.00 71 1013.3
20260905192617 27 76 3.2 4.8 0.00 0.00 0.00 70 1013.2
20260905192113 27 83 1.6 1.6 0.00 0.00 0.00 69 1013.2
20260905191612 27 14 3.2 4.8 0.00 0.00 0.00 66 1013.1
20260905191110 28 100 8.0 11.3 0.00 0.00 0.00 65 1013.0
20260905190609 28 143 4.8 4.8 0.00 0.00 0.00 64 1012.8
20260905190108 29 157 0.0 0.0 0.00 0.00 0.00 64 1013.0
20260905185607 29 103 3.2 3.2 0.00 0.00 0.00 63 1013.0
20260905185102 29 66 4.8 4.8 0.00 0.00 0.00 62 1012.9
20260905184556 30 4 9.7 16.1 0.00 0.00 0.00 60 1013.4
20260905184055 31 50 17.7 22.5 0.00 0.00 0.00 56 1013.8
20260905183555 35 50 4.8 4.8 0.00 0.00 0.00 53 1013.5
20260905183045 35 286 4.8 8.0 0.00 0.00 0.00 53 1013.1
20260905182545 35 330 3.2 4.8 0.00 0.00 0.00 52 1013.1
20260905182044 35 153 1.6 1.6 0.00 0.00 0.00 53 1013.0
20260905181539 36 96 0.0 1.6 0.00 0.00 0.00 51 1013.0
20260905181038 35 331 4.8 8.0 0.00 0.00 0.00 56 1013.5
20260905180533 35 11 1.6 3.2 0.00 0.00 0.00 56 1013.4
20260905180029 35 326 4.8 4.8 0.00 0.00 0.00 55 1013.3
20260905175528 35 343 3.2 3.2 0.00 0.00 0.00 54 1013.6
20260905175024 36 42 3.2 4.8 0.00 0.00 0.00 51 1013.8
20260905174519 35 316 6.4 8.0 0.00 0.00 0.00 53 1013.7
20260905174014 35 352 4.8 8.0 0.00 0.00 0.00 56 1013.7
20260905173511 35 309 6.4 11.3 0.00 0.00 0.00 54 1013.8
20260905173006 35 238 4.8 9.7 0.00 0.00 0.00 55 1013.8
20260905172504 35 236 9.7 11.3 0.00 0.00 0.00 53 1014.1
20260905172000 35 316 6.4 9.7 0.00 0.00 0.00 54 1014.2
20260905171456 35 278 6.4 9.7 0.00 0.00 0.00 53 1014.2
20260905170952 35 220 1.6 1.6 0.00 0.00 0.00 55 1014.4
20260905170448 35 251 4.8 4.8 0.00 0.00 0.00 56 1014.4
20260905165947 35 272 6.4 8.0 0.00 0.00 0.00 55 1014.5
20260905165442 35 35 3.2 3.2 0.00 0.00 0.00 57 1014.5
20260905164938 35 240 4.8 4.8 0.00 0.00 0.00 60 1014.7
20260905164432 35 202 3.2 4.8 0.00 0.00 0.00 57 1014.6
20260905163927 35 121 4.8 8.0 0.00 0.00 0.00 55 1014.7
20260905163424 34 200 1.6 3.2 0.00 0.00 0.00 60 1014.9
20260905162920 34 351 6.4 8.0 0.00 0.00 0.00 61 1014.9
20260905162414 34 200 3.2 4.8 0.00 0.00 0.00 60 1014.9
20260905161909 34 11 4.8 8.0 0.00 0.00 0.00 59 1015.2
20260905161409 34 357 4.8 8.0 0.00 0.00 0.00 62 1015.1
20260905160906 33 111 3.2 8.0 0.00 0.00 0.00 64 1014.9
20260905160400 33 254 4.8 4.8 0.00 0.00 0.00 64 1015.4
20260905155855 33 6 6.4 9.7 0.00 0.00 0.00 66 1015.2
20260905155354 33 197 4.8 4.8 0.00 0.00 0.00 62 1015.3
20260905154854 33 174 0.0 1.6 0.00 0.00 0.00 67 1015.6
20260905154349 33 205 6.4 8.0 0.00 0.00 0.00 67 1015.3
20260905153845 32 206 4.8 4.8 0.00 0.00 0.00 66 1015.1
20260905153341 33 93 1.6 3.2 0.00 0.00 0.00 65 1015.2
20260905152840 32 185 0.0 1.6 0.00 0.00 0.00 68 1015.2
20260905152339 32 261 4.8 8.0 0.00 0.00 0.00 70 1015.3
20260905151835 32 234 3.2 3.2 0.00 0.00 0.00 71 1015.3
20260905151330 31 206 3.2 4.8 0.00 0.00 0.00 72 1015.2
20260905150825 32 260 6.4 8.0 0.00 0.00 0.00 70 1015.2
20260905150319 32 289 8.0 11.3 0.00 0.00 0.00 71 1015.2
20260905145817 31 153 3.2 3.2 0.00 0.00 0.00 72 1015.2
20260905145311 31 187 3.2 4.8 0.00 0.00 0.00 72 1015.4
20260905144810 31 234 6.4 9.7 0.00 0.00 0.00 74 1015.4
20260905144306 31 175 1.6 1.6 0.00 0.00 0.00 73 1015.6
20260905143804 30 188 0.0 0.0 0.00 0.00 0.00 75 1015.2
20260905143259 30 181 1.6 1.6 0.00 0.00 0.00 76 1015.4
20260905142757 30 184 1.6 3.2 0.00 0.00 0.00 79 1015.4
20260905142252 30 259 4.8 4.8 0.00 0.00 0.00 78 1015.4
20260905141748 30 223 1.6 3.2 0.00 0.00 0.00 78 1015.4
20260905141243 30 202 3.2 4.8 0.00 0.00 0.00 78 1015.4
20260905140738 29 277 4.8 4.8 0.00 0.00 0.00 80 1015.6
20260905140233 30 247 4.8 8.0 0.00 0.00 0.00 78 1015.7
20260905135732 29 195 1.6 3.2 0.00 0.00 0.00 81 1015.7
20260905135229 28 172 6.4 8.0 0.00 0.00 0.00 81 1015.4
20260905134728 28 223 8.0 12.9 0.00 0.00 0.00 81 1015.6
20260905134227 28 195 3.2 4.8 0.00 0.00 0.00 82 1015.7
20260905133722 28 171 6.4 8.0 0.00 0.00 0.00 81 1015.4
20260905133217 28 209 3.2 3.2 0.00 0.00 0.00 84 1015.9
20260905132716 28 195 1.6 1.6 0.00 0.00 0.00 86 1015.3
20260905132212 28 174 4.8 8.0 0.00 0.00 0.00 86 1015.2
20260905131707 27 172 1.6 1.6 0.00 0.00 0.00 86 1015.8
20260905131202 27 236 3.2 4.8 0.00 0.00 0.00 88 1015.6
20260905130701 27 229 4.8 8.0 0.00 0.00 0.00 86 1015.7
20260905130156 27 161 1.6 3.2 0.00 0.00 0.00 86 1015.7
20260905125655 27 157 3.2 3.2 0.00 0.00 0.00 86 1015.7
20260905125152 27 183 3.2 4.8 0.00 0.00 0.00 87 1015.8
20260905124648 26 154 0.0 1.6 0.00 0.00 0.00 90 1015.6
20260905124144 26 233 4.8 4.8 0.00 0.00 0.00 90 1015.9
20260905123638 26 192 1.6 1.6 0.00 0.00 0.00 92 1015.9
20260905123136 26 235 4.8 4.8 0.00 0.00 0.00 92 1015.8
20260905122635 26 230 1.6 3.2 0.00 0.00 0.00 92 1015.8
20260905122130 26 227 3.2 4.8 0.00 0.00 0.00 92 1015.7
20260905121625 25 179 1.6 1.6 0.00 0.00 0.00 94 1015.9
20260905121121 25 163 0.0 0.0 0.00 0.00 0.00 97 1016.2
20260905120620 24 165 0.0 0.0 0.00 0.00 0.00 99 1016.1
20260905120115 23 164 0.0 0.0 0.00 0.00 0.00 99 1015.7
20260905115613 23 169 1.6 1.6 0.00 0.00 0.00 99 1015.8
20260905115108 23 171 0.0 0.0 0.00 0.00 0.00 99 1015.9
20260905114608 23 178 0.0 0.0 0.00 0.00 0.00 99 1015.6
20260905114107 22 193 0.0 0.0 0.00 0.00 0.00 99 1015.6
20260905113602 22 200 0.0 0.0 0.00 0.00 0.00 99 1015.3
20260905113058 22 200 0.0 0.0 0.00 0.00 0.00 99 1015.3
20260905112552 22 200 0.0 0.0 0.00 0.00 0.00 99 1015.3
20260905112048 22 200 0.0 0.0 0.00 0.00 0.00 99 1015.2
20260905111542 22 191 0.0 0.0 0.00 0.00 0.00 99 1015.1
20260905111042 22 191 0.0 0.0 0.00 0.00 0.00 99 1014.7
20260905110541 22 191 0.0 0.0 0.00 0.00 0.00 99 1014.9
20260905110036 22 192 0.0 0.0 0.00 0.00 0.00 99 1014.8
20260905105531 22 192 0.0 0.0 0.00 0.00 0.00 99 1014.6
20260905105030 22 192 0.0 0.0 0.00 0.00 0.00 99 1014.7
20260905104526 22 192 0.0 0.0 0.00 0.00 0.00 99 1014.7
20260905104026 22 192 0.0 0.0 0.00 0.00 0.00 99 1014.6
20260905103521 22 191 0.0 0.0 0.00 0.00 0.00 99 1014.4
20260905103017 22 192 0.0 0.0 0.00 0.00 0.00 99 1014.3
20260905102513 22 191 0.0 0.0 0.00 0.00 0.00 99 1014.2
20260905102009 22 192 0.0 0.0 0.00 0.00 0.00 99 1014.3
20260905101507 22 191 0.0 0.0 0.00 0.00 0.00 99 1014.4
20260905101005 22 191 0.0 0.0 0.00 0.00 0.00 99 1014.5
20260905100456 22 192 0.0 0.0 0.00 0.00 0.00 99 1014.3
20260905095955 22 206 1.6 3.2 0.00 0.00 0.00 99 1014.2
20260905095450 23 146 0.0 0.0 0.00 0.00 0.00 99 1014.6
20260905094946 23 148 0.0 1.6 0.00 0.00 0.00 99 1014.3
20260905094441 23 170 0.0 0.0 0.00 0.00 0.00 99 1014.6
20260905093939 23 168 0.0 0.0 0.00 0.00 0.00 99 1014.3
20260905093435 23 168 0.0 0.0 0.00 0.00 0.00 99 1014.4
20260905092930 23 168 0.0 0.0 0.00 0.00 0.00 99 1014.4
20260905092426 23 168 0.0 0.0 0.00 0.00 0.00 99 1014.6
20260905091920 23 162 0.0 0.0 0.00 0.00 0.00 99 1014.3
20260905091415 23 140 0.0 0.0 0.00 0.00 0.00 99 1014.3
20260905090914 23 140 0.0 0.0 0.00 0.00 0.00 99 1014.4
20260905090410 23 143 0.0 0.0 0.00 0.00 0.00 99 1014.5
20260905085909 23 143 0.0 0.0 0.00 0.00 0.00 99 1014.5
20260905085409 23 126 0.0 0.0 0.00 0.00 0.00 99 1014.5
20260905084905 23 75 0.0 0.0 0.00 0.00 0.00 99 1014.5
20260905084403 23 96 0.0 1.6 0.00 0.00 0.00 99 1014.4
20260905083858 23 181 0.0 0.0 0.00 0.00 0.00 99 1014.5
20260905083354 23 191 0.0 0.0 0.00 0.00 0.00 99 1014.7
20260905082850 23 190 0.0 0.0 0.00 0.00 0.00 99 1014.4
20260905082345 23 199 0.0 0.0 0.00 0.00 0.00 99 1014.5
20260905081840 23 200 1.6 1.6 0.00 0.00 0.00 99 1014.9
20260905081330 23 144 0.0 0.0 0.00 0.00 0.00 99 1014.7
20260905080829 23 144 0.0 0.0 0.00 0.00 0.00 99 1014.8
20260905080324 23 144 0.0 0.0 0.00 0.00 0.00 99 1014.9
20260905075822 23 144 0.0 0.0 0.00 0.00 0.00 99 1014.8
20260905075322 23 144 0.0 0.0 0.00 0.00 0.00 98 1014.9
20260905074821 23 144 0.0 0.0 0.00 0.00 0.00 98 1014.9
20260905074317 23 144 0.0 0.0 0.00 0.00 0.00 98 1015.3
20260905073812 23 144 0.0 0.0 0.00 0.00 0.00 98 1015.3
20260905073307 23 143 0.0 0.0 0.00 0.00 0.00 98 1014.9
20260905072802 23 143 0.0 0.0 0.00 0.00 0.00 98 1015.0
20260905072257 23 143 0.0 0.0 0.00 0.00 0.00 98 1015.3